STARLINK-11512, 62517

Orbit data source: Space-Track

STARLINK-11512, 62517 is a payload satellite owned by SpaceX/Seattle (US) in LEO that was launched on Wed, 08 Jan 2025 UTC via an FALCON 9 launch vehicle from the Air Force Eastern Test Range (AFETR). Payload-class satellites include a variety of spacecraft equipped with specific instruments for various scientific and technological missions. These include communications satellites like Starlink; space stations such as the ISS; scientific satellites like the Hubble; Earth observation satellites from companies like Planet Labs, Umbra, and HawkEye 360; GPS; miniature CubeSats for education and research; and military/defense satellites.

Loading next visibility...
Identifier
62517, 2025-004G
Orbit
LEO
Country
Flag of USUS
Related business
Manufacturer
SpaceX/Seattle
Mission
Operational Commercial Communications
Bus & Motor
STARLINK V2MD, Unknown motor
Mass
960 kg wet, ~910 kg dry
Launch date (UTC)
2025-01-08 (10 months ago)
Launch vehicle
FALCON 9
Launch site
Air Force Eastern Test Range (AFETR)
Object type
Payload
Rocket body
Debris
Shape & HBR
Box + 2 Pan, 18.1 m
Radar Cross Section
36.964 m², Large (>1 m²)

Expand to show TLE details & history
Last TLE update: 18 hours ago

TLE from 18 hours ago
0 STARLINK-11512
1 62517U 25004G   25308.56207654  .00148339  00000-0  11375-2 0  9992
2 62517  42.9994 104.5601 0002241 276.8374  83.2238 15.70871374 47531
Epoch: 2025-11-04T13:29Z
TLE epoch observation values (Epoch: 2025-11-04T13:29:23.413Z)
Latitude
-0.00004°
Longitude
-141.83482°
Altitude
355.999 km
Speed
7.698 km/s
True Right ascension
06h 58m 14s
True Declination
0° 00' 00"
Sunlit
Object was in full shadow at epoch
Visualization orbit readout
Latitude
Unknown
Longitude
Unknown
Altitude
Unknown
Speed
Unknown
Apparent Right ascension
Unknown
Apparent Declination
Unknown
Sunlit
N/A
Visualization observer readout
Local Sidereal Time
03:44:39
Azimuth
Unknown
Elevation
Unknown
Doppler factor
Unknown
Orbital elements
Apogee altitude
359.897 km
Perigee altitude
356.877 km
Semi-major axis
6,736.524 km
Eccentricity
0.00022
Inclination
42.9994°
RAAN
104.5601°
Arg. of periapsis
276.8374°
True anomaly
83.2493°
Mean anomaly
83.2238°
Eccentric anomaly
83.23655°
Mean motion
3.92545 °/min
Orbital period
91.71 mins
BSTAR
0.0011375
Loading maneuver chart data...
Computing Atmospheric mass density...
Loading historical data...
Loading historical data...
Loading historical data...
Loading historical data...
Loading historical data...
Loading historical data...
Loading historical data...

Documentation

Showing up to 5 results
|